Zurück zum Katalog

OPS 4682 DEB

AktivPO
NORAD 38398·DEBRIS·🇺🇸 United States

Gestartet Apr 3, 1965 von Vandenberg Space Force Base

Loading…

Nächste Überflüge (nächste 24 Stunden)

TLE

AktuellSource: Space-Track

Epoche: Sep 14, 2026, 14:15 UTC

1 38398U 65027DB  26257.59390080 -.00000143  00000-0 -51987-3 0  9990
2 38398  90.2715  20.0266 0017856 227.9277 132.0325 12.97177613674845

Verfolge OPS 4682 DEB in Echtzeit mit AllMySat

Download on the App Store